ONEWEB-0293 (49082 NORAD) Tracking and Keplerian Element Data

This shows tracking and keplerian element data for the satellite.

Feedback or suggestion? Click here.




ElementValue
Catalog49082
NameONEWEB-0293
Epoch Orbit1132
Epoch Day300.91667824
Epoch Year2021
RAAN344.2768
Inclination87.5795
Eccentricity0.0023867
Argument of Perigee63.3541
Mean Anonmoly206.4391
Mean Motion14.35640573
Decay Rate-0.01383206
L11 49082U 21075H 21300.91667824 -.01383206 00000-0 -51103+0 0 9991
L22 49082 87.5795 344.2768 0023867 63.3541 206.4391 14.35640573 11328

Live tracking and technical data element details for ONEWEB-0293 (NORAD 49082). ONEWEB-0293 can be tracked NOW for your location showing map with azimuth and elevation plus other details from your city location.

Track the satellite on the map from your city or location and see movement details for azimuth, elevation, latitude, longitude, range, height, and movement on the map or in text.







IsCatalogInMostPopularTable: catalog: 49082, numindb: 13
Update: records affected: 1



GetName: 49082 ONEWEB-0293

Hit Count: updated at: Thu, 28 Oct 2021 10:23:45 GMT